Voltar ao catálogo

COSMOS 1408 DEB

LostPO
NORAD 57286·DEBRIS·🇷🇺 Russia

Lançado Sep 16, 1982 de Plesetsk Cosmodrome

Loading…

Próximas Passagens (próximas 24 horas)

TLE

ObsoletoSource: Space-Track

Época: Mar 3, 2024, 16:28 UTC

1 57286U 82092CCG 24063.68671471  .00010003  00000-0  62653-3 0  9993
2 57286  82.5593  52.7317 0175349 135.6873 225.8543 14.97251217 35982

Acompanhe COSMOS 1408 DEB em tempo real com AllMySat

Download on the App Store